When you browse on this site, cookies collect data to enhance your experience and personalize the content and advertising you see.
Visit our Privacy Policy to learn more. By continuing to use the site, you agree to this use of cookies and data.
  • In Hungary
  • List of Countries
  • For 7 days
  • Water Temperature
  • Satellite Maps
  • Weather Map
  • News
  • Weather Widgets
  • user-avatar
    Login

    Hourly Weather Vocklabruck

    Today, 25 March, Monday

    Time Temperature Precipitation Wind Pressure Humidity
    00:00 +9°C° 0.2 mm 3 mps 723 mmHg 86%
    01:00 +9°C° 0 mm 3 mps 723 mmHg 88%
    02:00 +8°C° 0.2 mm 3 mps 722 mmHg 88%
    03:00 +8°C° 0.2 mm 3 mps 722 mmHg 88%
    04:00 +7°C° 0.2 mm 3 mps 722 mmHg 89%
    05:00 +7°C° 0.4 mm 3 mps 722 mmHg 89%
    06:00 +7°C° 0.4 mm 3 mps 721 mmHg 90%
    07:00 +7°C° 0 mm 3 mps 721 mmHg 90%
    08:00 +6°C° 0.4 mm 4 mps 721 mmHg 85%
    09:00 +6°C° 0.4 mm 5 mps 720 mmHg 79%
    10:00 +5°C° 0.4 mm 6 mps 720 mmHg 74%
    11:00 +7°C° 0.2 mm 6 mps 720 mmHg 67%
    12:00 +7°C° 0.2 mm 6 mps 720 mmHg 61%
    13:00 +8°C° 0.2 mm 7 mps 720 mmHg 55%
    14:00 +6°C° 0.2 mm 7 mps 720 mmHg 58%
    15:00 +5°C° 0.2 mm 7 mps 720 mmHg 60%
    16:00 +5°C° 0.2 mm 7 mps 720 mmHg 63%
    17:00 +4°C° 0.2 mm 6 mps 721 mmHg 67%
    18:00 +3°C° 0.2 mm 5 mps 721 mmHg 70%
    19:00 +2°C° 0.2 mm 5 mps 721 mmHg 74%
    20:00 +1°C° 0.1 mm 4 mps 722 mmHg 76%
    21:00 +1°C° 0.1 mm 4 mps 723 mmHg 78%
    22:00 0°C° 0.1 mm 4 mps 723 mmHg 80%
    23:00 0°C° 0.1 mm 4 mps 724 mmHg 82%

    Tomorrow, 26 March, Tuesday

    Time Temperature Precipitation Wind Pressure Humidity
    00:00 0°C° 0.1 mm 3 mps 724 mmHg 85%
    01:00 0°C° 0.1 mm 3 mps 725 mmHg 87%
    02:00 0°C° 0 mm 3 mps 725 mmHg 90%
    03:00 -1°C° 0 mm 3 mps 725 mmHg 92%
    04:00 -1°C° 0 mm 2 mps 726 mmHg 94%
    05:00 -1°C° 0 mm 2 mps 726 mmHg 93%
    06:00 -1°C° 0 mm 2 mps 726 mmHg 92%
    07:00 +1°C° 0 mm 2 mps 727 mmHg 91%
    08:00 +1°C° 0 mm 3 mps 727 mmHg 84%
    09:00 +2°C° 0 mm 3 mps 727 mmHg 78%
    10:00 +3°C° 0 mm 3 mps 727 mmHg 71%
    11:00 +4°C° 0.1 mm 4 mps 727 mmHg 69%
    12:00 +4°C° 0.1 mm 4 mps 727 mmHg 66%
    13:00 +5°C° 0.1 mm 4 mps 727 mmHg 64%
    14:00 +5°C° 0 mm 4 mps 727 mmHg 64%
    15:00 +5°C° 0 mm 4 mps 727 mmHg 64%
    16:00 +5°C° 0 mm 4 mps 727 mmHg 65%
    17:00 +4°C° 0 mm 4 mps 727 mmHg 68%
    18:00 +3°C° 0 mm 3 mps 728 mmHg 72%
    19:00 +3°C° 0 mm 3 mps 728 mmHg 76%
    20:00 +2°C° 0.1 mm 3 mps 729 mmHg 76%
    21:00 +2°C° 0.1 mm 3 mps 729 mmHg 77%
    22:00 +2°C° 0.1 mm 3 mps 730 mmHg 78%
    23:00 +1°C° 0 mm 3 mps 730 mmHg 80%

    Day after tomorrow, 27 March, Wednesday

    Time Temperature Precipitation Wind Pressure Humidity
    00:00 +2°C° 0 mm 2 mps 730 mmHg 83%
    01:00 +1°C° 0 mm 2 mps 730 mmHg 85%
    02:00 +1°C° 0 mm 2 mps 730 mmHg 86%
    03:00 -1°C° 0 mm 2 mps 729 mmHg 87%
    04:00 -1°C° 0 mm 2 mps 729 mmHg 88%
    05:00 -1°C° 0 mm 2 mps 729 mmHg 85%
    06:00 +1°C° 0 mm 2 mps 730 mmHg 82%
    07:00 +1°C° 0 mm 2 mps 730 mmHg 79%
    08:00 +2°C° 0 mm 2 mps 730 mmHg 75%
    09:00 +4°C° 0 mm 2 mps 730 mmHg 71%
    10:00 +5°C° 0 mm 2 mps 730 mmHg 66%
    11:00 +6°C° 0 mm 2 mps 730 mmHg 64%
    12:00 +6°C° 0 mm 2 mps 730 mmHg 62%
    13:00 +7°C° 0 mm 2 mps 730 mmHg 60%
    14:00 +7°C° 0 mm 2 mps 729 mmHg 61%
    15:00 +7°C° 0 mm 2 mps 729 mmHg 62%
    16:00 +8°C° 0 mm 1 mps 729 mmHg 63%
    17:00 +7°C° 0 mm 1 mps 729 mmHg 68%
    18:00 +6°C° 0 mm 1 mps 730 mmHg 73%
    19:00 +5°C° 0 mm 1 mps 730 mmHg 78%
    20:00 +5°C° 0 mm 1 mps 731 mmHg 80%
    21:00 +3°C° 0 mm 2 mps 731 mmHg 81%
    22:00 +3°C° 0 mm 2 mps 731 mmHg 83%
    23:00 +3°C° 0 mm 2 mps 731 mmHg 82%

    28 March, Thursday

    Time Temperature Precipitation Wind Pressure Humidity
    00:00 +2°C° 0 mm 2 mps 731 mmHg 82%
    01:00 +2°C° 0 mm 2 mps 732 mmHg 81%
    02:00 +2°C° 0 mm 2 mps 732 mmHg 82%
    03:00 +2°C° 0 mm 2 mps 731 mmHg 82%
    04:00 +2°C° 0 mm 2 mps 731 mmHg 82%
    05:00 +3°C° 0 mm 1 mps 732 mmHg 81%
    06:00 +4°C° 0 mm 1 mps 732 mmHg 79%
    07:00 +4°C° 0 mm 1 mps 732 mmHg 78%
    08:00 +5°C° 0 mm 1 mps 732 mmHg 75%
    09:00 +7°C° 0 mm 1 mps 732 mmHg 72%
    10:00 +8°C° 0 mm 2 mps 732 mmHg 69%
    11:00 +9°C° 0 mm 2 mps 731 mmHg 67%
    12:00 +10°C° 0 mm 2 mps 731 mmHg 65%
    13:00 +12°C° 0 mm 2 mps 731 mmHg 63%
    14:00 +11°C° 0.1 mm 1 mps 731 mmHg 67%
    15:00 +11°C° 0.1 mm 1 mps 731 mmHg 71%
    16:00 +10°C° 0.1 mm 1 mps 730 mmHg 75%
    17:00 +10°C° 0.1 mm 1 mps 731 mmHg 79%
    18:00 +8°C° 0.1 mm 0 mps 731 mmHg 83%
    19:00 +7°C° 0.1 mm 0 mps 732 mmHg 87%
    20:00 +7°C° 0.2 mm 0 mps 732 mmHg 88%
    21:00 +8°C° 0.2 mm 1 mps 732 mmHg 89%
    22:00 +8°C° 0.2 mm 1 mps 733 mmHg 91%
    23:00 +7°C° 0.1 mm 1 mps 733 mmHg 91%

    29 March, Friday

    Time Temperature Precipitation Wind Pressure Humidity
    00:00 +6°C° 0.1 mm 1 mps 733 mmHg 91%
    01:00 +5°C° 0.1 mm 1 mps 733 mmHg 92%
    02:00 +5°C° 0 mm 1 mps 733 mmHg 93%
    03:00 +4°C° 0 mm 1 mps 733 mmHg 93%
    04:00 +4°C° 0 mm 1 mps 733 mmHg 94%
    05:00 +4°C° 0 mm 1 mps 733 mmHg 93%
    06:00 +4°C° 0 mm 1 mps 733 mmHg 92%
    07:00 +4°C° 0 mm 1 mps 733 mmHg 91%
    08:00 +5°C° 0 mm 2 mps 733 mmHg 85%
    09:00 +7°C° 0 mm 2 mps 733 mmHg 78%
    10:00 +9°C° 0 mm 3 mps 733 mmHg 72%
    11:00 +10°C° 0 mm 3 mps 732 mmHg 67%
    12:00 +11°C° 0 mm 3 mps 732 mmHg 62%
    13:00 +12°C° 0 mm 3 mps 731 mmHg 57%
    14:00 +12°C° 0 mm 3 mps 731 mmHg 58%
    15:00 +12°C° 0 mm 3 mps 731 mmHg 59%
    16:00 +13°C° 0 mm 3 mps 730 mmHg 59%
    17:00 +12°C° 0 mm 2 mps 730 mmHg 67%
    18:00 +9°C° 0 mm 2 mps 731 mmHg 74%
    19:00 +7°C° 0 mm 2 mps 731 mmHg 81%
    20:00 +7°C° 0 mm 1 mps 731 mmHg 83%
    21:00 +7°C° 0 mm 1 mps 731 mmHg 84%
    22:00 +6°C° 0 mm 1 mps 731 mmHg 86%
    23:00 +6°C° 0 mm 1 mps 731 mmHg 85%

    30 March, Saturday

    Time Temperature Precipitation Wind Pressure Humidity
    00:00 +5°C° 0 mm 1 mps 731 mmHg 85%
    01:00 +5°C° 0 mm 1 mps 731 mmHg 85%
    02:00 +5°C° 0 mm 1 mps 730 mmHg 84%
    03:00 +4°C° 0 mm 1 mps 730 mmHg 83%
    04:00 +4°C° 0 mm 1 mps 730 mmHg 83%
    05:00 +4°C° 0 mm 1 mps 730 mmHg 81%
    06:00 +5°C° 0 mm 1 mps 730 mmHg 79%
    07:00 +5°C° 0 mm 1 mps 730 mmHg 77%
    08:00 +8°C° 0 mm 1 mps 730 mmHg 69%
    09:00 +10°C° 0 mm 1 mps 729 mmHg 62%
    10:00 +12°C° 0 mm 0 mps 729 mmHg 55%
    11:00 +14°C° 0 mm 1 mps 728 mmHg 52%
    12:00 +15°C° 0 mm 1 mps 728 mmHg 50%
    13:00 +18°C° 0 mm 1 mps 728 mmHg 48%
    14:00 +18°C° 0 mm 1 mps 727 mmHg 49%
    15:00 +16°C° 0 mm 1 mps 726 mmHg 50%
    16:00 +16°C° 0 mm 1 mps 726 mmHg 51%
    17:00 +13°C° 0 mm 0 mps 726 mmHg 59%
    18:00 +11°C° 0 mm 0 mps 725 mmHg 66%
    19:00 +9°C° 0 mm 0 mps 725 mmHg 73%
    20:00 +8°C° 0 mm 0 mps 725 mmHg 76%
    21:00 +9°C° 0 mm 1 mps 725 mmHg 78%
    22:00 +8°C° 0 mm 1 mps 725 mmHg 81%
    23:00 +8°C° 0 mm 1 mps 725 mmHg 82%
    Show more